Teterboro, NJ

11:08 PM EDT on May 25, 2017 (GMT -0400)
Teterboro

Weather History for KTEB - February, 2013

Change the Weather History Date:

Thursday, February 21, 2013

  Actual Average Record
Temperature  
Mean Temperature 29 °F -  
Max Temperature 34 °F 41 °F 63 °F (1997)
Min Temperature 24 °F 26 °F 6 °F (2015)
Degree Days  
Heating Degree Days 36    
Moisture  
Dew Point 12 °F    
Average Humidity 51    
Maximum Humidity 62    
Minimum Humidity 42    
Precipitation  
Precipitation 0.00 in - - ()
Sea Level Pressure  
Sea Level Pressure 30.07 in    
Wind  
Wind Speed 13 mph (NW)    
Max Wind Speed 20 mph    
Max Gust Speed 31 mph    
Visibility 10 miles    
Events      
Averages and records for this station are not official NWS values.
T = Trace of Precipitation, MM = Missing Value Source: NWS Daily Summary

Daily Weather History Graph

Daily Weather History Graph

Search for Another Location

Airport or City:

Trip Planner

Search our weather history database for the weather conditions in past years. The results will help you decide how hot, cold, wet, or windy it might be!

Date:

Astronomy

Feb. 21, 2013 Rise Set
Actual Time 6:41 AM EST 5:38 PM EST
Civil Twilight 6:14 AM EST 6:06 PM EST
Nautical Twilight 5:42 AM EST 6:38 PM EST
Astronomical Twilight 5:10 AM EST 7:09 PM EST
Moon 1:49 PM EST (2/21) 3:45 AM EST (2/21)
Length of Visible Light 11h 52m
Length of Day
10h 56m
Waxing Gibbous, 83% of the Moon is Illuminated
Feb 21
Waxing Gibbous
Feb 25
Full
Mar 4
Last Quarter
Mar 11
New
Mar 19
First Quarter

Hourly Weather History & Observations

Time (EST) Temp. Windchill Dew Point Humidity Pressure Visibility Wind Dir Wind Speed Gust Speed Precip Events Conditions
12:51 AM 25.0 °F 13.6 °F 10.0 °F 53% 29.99 in 10.0 mi WNW 12.7 mph 21.9 mph N/A   Scattered Clouds
1:51 AM 25.0 °F 18.1 °F 10.0 °F 53% 29.99 in 10.0 mi NW 5.8 mph - N/A   Partly Cloudy
2:51 AM 24.1 °F 15.2 °F 10.9 °F 57% 29.99 in 10.0 mi WNW 8.1 mph - N/A   Scattered Clouds
3:51 AM 25.0 °F 16.3 °F 10.9 °F 55% 29.98 in 10.0 mi WNW 8.1 mph 20.7 mph N/A   Overcast
4:51 AM 25.0 °F 15.5 °F 10.9 °F 55% 29.99 in 10.0 mi WNW 9.2 mph - N/A   Overcast
5:51 AM 25.0 °F 13.1 °F 10.9 °F 55% 30.01 in 10.0 mi WNW 13.8 mph 23.0 mph N/A   Overcast
6:51 AM 25.0 °F 12.2 °F 10.9 °F 55% 30.01 in 10.0 mi NW 16.1 mph - N/A   Overcast
7:51 AM 27.0 °F 15.6 °F 10.9 °F 51% 30.02 in 10.0 mi WNW 13.8 mph 20.7 mph N/A   Mostly Cloudy
8:51 AM 28.0 °F 16.5 °F 10.0 °F 47% 30.02 in 10.0 mi NW 15.0 mph 26.5 mph N/A   Overcast
9:51 AM 30.0 °F 20.0 °F 10.9 °F 45% 30.01 in 10.0 mi WNW 12.7 mph 25.3 mph N/A   Clear
10:51 AM 30.9 °F 19.8 °F 12.0 °F 46% 30.01 in 10.0 mi WNW 16.1 mph 31.1 mph N/A   Clear
11:51 AM 32.0 °F 20.1 °F 14.0 °F 48% 30.02 in 10.0 mi NW 19.6 mph 26.5 mph N/A   Scattered Clouds
12:51 PM 32.0 °F 20.5 °F 12.9 °F 45% 30.00 in 10.0 mi WNW 18.4 mph 26.5 mph N/A   Partly Cloudy
1:51 PM 34.0 °F 23.4 °F 12.9 °F 42% 30.01 in 10.0 mi NW 17.3 mph 26.5 mph N/A   Clear
2:51 PM 34.0 °F 24.6 °F 14.0 °F 44% 30.02 in 10.0 mi WNW 13.8 mph 25.3 mph N/A   Clear
3:51 PM 34.0 °F 24.2 °F 14.0 °F 44% 30.04 in 10.0 mi NNW 15.0 mph 25.3 mph N/A   Clear
4:51 PM 32.0 °F 20.8 °F 12.9 °F 45% 30.09 in 10.0 mi NNW 17.3 mph 29.9 mph N/A   Clear
5:51 PM 30.0 °F 17.9 °F 12.0 °F 47% 30.12 in 10.0 mi NNW 18.4 mph 27.6 mph N/A   Clear
6:51 PM 28.0 °F 18.6 °F 12.0 °F 51% 30.15 in 10.0 mi NNW 10.4 mph 19.6 mph N/A   Clear
7:51 PM 27.0 °F 16.1 °F 12.9 °F 56% 30.22 in 10.0 mi NW 12.7 mph 23.0 mph N/A   Clear
8:51 PM 25.0 °F 11.3 °F 12.0 °F 58% 30.26 in 10.0 mi NW 18.4 mph 26.5 mph N/A   Clear
9:51 PM 25.0 °F 12.2 °F 12.0 °F 58% 30.27 in 10.0 mi NNW 16.1 mph 27.6 mph N/A   Clear
10:51 PM 24.1 °F 11.5 °F 12.0 °F 60% 30.28 in 10.0 mi NNW 15.0 mph 20.7 mph N/A   Clear
11:51 PM 24.1 °F 11.0 °F 12.9 °F 62% 30.28 in 10.0 mi North 16.1 mph 20.7 mph N/A   Clear